[[{"header":{"parameterUnit":"m.s-1","parameterCategory":1,"la1":30.2991,"la2":30.254,"lo1":-89.0895,"lo2":-89.0444,"dy":0.0017,"dx":0.0017,"nx":28,"ny":28,"refTime":"2023-10-20T21:00:00:Z","depth":0,"parameterNumber":2,"parameterNumberName":"U-component_of_WINDS"},"data":[0,0,0,0,0,0,0,0,0,0,0,0,0,0,0,0,0,0,0,0,0,0,0,0,0,0,0,0,0,0,0,0,0,0,0,0,0,0,0,0,0,0,0,0,0,0,0,0,0,0,0,0,0,0,0,0,0,0,-2.3409,-2.3407,0,-2.3212,-2.321,-2.3208,-2.3043,-2.3041,-2.304,-2.3038,-2.2837,-2.2834,-2.283,0,0,0,0,0,0,0,0,0,0,0,0,0,-2.3644,-2.3641,-2.3409,-2.3406,-2.3404,-2.3212,-2.321,-2.3207,-2.3044,-2.3041,-2.3039,-2.3037,-2.2838,-2.2834,-2.283,0,0,0,0,0,0,0,0,0,0,0,0,0,-2.3504,-2.3639,-2.3409,-2.3299,-2.3287,-2.3213,-2.321,-2.3206,-2.3044,-2.3041,-2.3039,-2.3036,-2.284,-2.2834,-2.2829,-2.2848,0,0,-2.2812,-2.281,0,0,0,0,0,0,0,0,-2.3512,-2.3496,-2.3318,-2.3307,-2.3293,-2.3149,-2.3219,-2.3086,-2.3045,-2.3136,-2.3038,-2.3035,-2.2943,-2.2929,-2.2898,-2.2839,-2.283,-2.2812,-2.2808,-2.2806,-2.2804,0,0,0,0,0,0,0,-2.3522,-2.3503,-2.3331,-2.3316,-2.33,-2.326,-2.3237,-2.3193,-2.3057,-2.3128,-2.3116,-2.3095,-2.2936,-2.2904,-2.2892,-2.2827,-2.2812,-2.2807,-2.2803,-2.2801,-2.2775,-2.2778,0,0,0,0,0,0,-2.3549,-2.3512,-2.3337,-2.3325,-2.3399,-2.3258,-2.3233,-2.3198,-2.3057,-2.3033,-2.3097,-2.3088,-2.2915,-2.2899,-2.2884,-2.2898,-2.2806,-2.2801,-2.2797,-2.2773,-2.2776,-2.2779,0,0,0,0,0,0,-2.3555,-2.3535,-2.3345,-2.3415,-2.3388,-2.3257,-2.322,-2.3196,-2.3163,-2.3034,-2.3009,-2.3089,-2.2912,-2.2892,-2.2859,-2.2889,-2.2798,-2.2793,-2.277,-2.2774,-2.2777,-2.2927,0,0,0,0,0,0,-2.3562,-2.3538,-2.3543,-2.3417,-2.3385,-2.3323,-2.3222,-2.3194,-2.3154,-2.314,-2.302,-2.2997,-2.2908,-2.2868,-2.2853,-2.288,-2.2789,-2.2766,-2.2771,-2.2776,-2.2918,-2.2935,-2.295,0,0,0,0,0,-2.3571,-2.3593,-2.3544,-2.3524,-2.3389,-2.3325,-2.3306,-2.3204,-2.3157,-2.3162,-2.3079,-2.3001,-2.2888,-2.2866,-2.2848,-2.2873,-2.2764,-2.277,-2.2776,-2.2911,-2.2932,-2.2949,0,0,0,0,0,0,-2.3725,-2.3574,-2.3519,-2.35,-2.3427,-2.3297,-2.3299,-2.3228,-2.3166,-2.3156,-2.3031,-2.3005,-2.2986,-2.2926,-2.2904,-2.2885,-2.2816,-2.2819,-2.2925,-2.2944,-2.2959,-2.2974,-2.2784,0,0,0,0,0,-2.3758,-2.3718,-2.3587,-2.3584,-2.355,-2.3432,-2.34,-2.3327,-2.3246,-2.3214,-2.3128,-2.3053,-2.3001,-2.2969,-2.2913,-2.2909,-2.2881,-2.2918,-2.2934,-2.2947,-2.2951,-2.2946,-2.2961,-2.2798,-2.2798,-2.2798,0,0,-2.3823,-2.3735,-2.3718,-2.3613,-2.3547,-2.3509,-2.3406,-2.337,-2.3341,-2.3208,-2.3172,-2.3107,-2.3015,-2.2997,-2.2984,-2.2946,-2.299,-2.2955,-2.2966,-2.2963,-2.2954,-2.297,-2.2983,-2.2802,-2.2801,-2.2801,0,0,-2.3923,-2.3853,-2.3842,-2.3779,-2.3682,-2.3603,-2.3602,-2.3483,-2.3435,-2.3396,-2.3296,-2.3261,-2.3172,-2.3111,-2.3069,-2.3149,-2.3076,-2.3135,-2.3216,-2.3213,-2.3226,-2.3237,-2.3267,-2.3279,-2.3139,-2.3139,-2.3139,0,-2.4017,-2.3955,-2.3846,-2.3816,-2.3774,-2.3653,-2.3642,-2.3586,-2.3476,-2.345,-2.3409,-2.3297,-2.3226,-2.3193,-2.3213,-2.3182,-2.3177,-2.3147,-2.3233,-2.3243,-2.3251,-2.3278,-2.329,-2.3147,-2.3146,-2.3145,-2.3145,0,-2.4076,-2.4036,-2.4039,-2.3937,-2.3894,-2.3875,-2.3763,-2.3734,-2.3666,-2.3592,-2.3556,-2.3467,-2.3392,-2.3379,-2.3311,-2.3337,-2.3316,-2.3256,-2.3184,-2.3276,-2.33,-2.3309,-2.3158,-2.3156,-2.3153,-2.3151,0,0,-2.4266,-2.4105,-2.4109,-2.4061,-2.3946,-2.3913,-2.3889,-2.3816,-2.3794,-2.3723,-2.37,-2.3629,-2.3573,-2.3525,-2.345,-2.3448,-2.3519,-2.3387,-2.3383,-2.3416,-2.3544,-2.3591,-2.3604,-2.347,-2.3471,-2.3472,-2.3552,0,-2.4348,-2.4298,-2.42,-2.418,-2.4142,-2.4028,-2.4007,-2.3935,-2.3866,-2.3825,-2.3748,-2.3701,-2.363,-2.3601,-2.3593,-2.3512,-2.3543,-2.3505,-2.3448,-2.3448,-2.3476,-2.3616,-2.3665,-2.3744,-2.356,-2.3562,-2.3563,0,-2.4437,-2.4374,-2.4351,-2.424,-2.4221,-2.4204,-2.413,-2.4092,-2.4008,-2.3958,-2.3907,-2.3825,-2.3794,-2.3729,-2.3686,-2.3662,-2.3633,-2.3591,-2.3591,-2.3582,-2.3511,-2.3612,-2.3767,-2.378,-2.3576,-2.3575,-2.3574,0,-2.458,-2.4489,-2.4464,-2.4427,-2.4297,-2.4288,-2.4233,-2.4147,-2.4111,-2.4047,-2.4022,-2.3956,-2.392,-2.3871,-2.3774,-2.3735,-2.3743,-2.3668,-2.3702,-2.3705,-2.3708,-2.371,-2.3862,-2.3689,-2.3689,-2.3689,-2.3689,0,-2.4682,-2.4673,-2.4526,-2.4511,-2.4499,-2.4387,-2.4377,-2.4312,-2.4237,-2.4208,-2.4105,-2.408,-2.3953,-2.3914,-2.3838,-2.3815,-2.3799,-2.3759,-2.3739,-2.3769,-2.3774,-2.3748,-2.3741,-2.3692,-2.3691,-2.3691,-2.369,0,-2.4839,-2.474,-2.4706,-2.4586,-2.4556,-2.4552,-2.445,-2.4432,-2.4358,-2.4323,-2.4308,-2.4192,-2.4141,-2.404,-2.396,-2.3909,-2.3904,-2.3868,-2.3933,-2.392,-2.396,-2.3959,-2.4102,-2.4116,-2.3935,-2.3937,-2.3938,0,-2.491,-2.4901,-2.4781,-2.4755,-2.4705,-2.4663,-2.4625,-2.4516,-2.4481,-2.4387,-2.4381,-2.4321,-2.4268,-2.4192,-2.4101,-2.4041,-2.4003,-2.4058,-2.3993,-2.4024,-2.4006,-2.4008,-2.4007,-2.4072,-2.4075,-2.4077,-2.4079,0,-2.5049,-2.5001,-2.4951,-2.4886,-2.4844,-2.4787,-2.4724,-2.4708,-2.4584,-2.4551,-2.4498,-2.4457,-2.4376,-2.432,-2.4246,-2.419,-2.4115,-2.41,-2.4104,-2.4135,-2.4173,-2.4155,-2.3973,-2.4097,-2.4095,-2.4094,-2.4093,-2.4092,-2.5165,-2.5153,-2.5068,-2.5016,-2.4958,-2.4902,-2.488,-2.4804,-2.4758,-2.4684,-2.4622,-2.4575,-2.4494,-2.4387,-2.4337,-2.4299,-2.4262,-2.4269,-2.427,-2.4274,-2.4287,-2.4179,-2.4285,-2.4284,-2.4283,-2.4283,-2.4282,0,-2.53,-2.524,-2.5194,-2.511,-2.5071,-2.5003,-2.4931,-2.4902,-2.4862,-2.4793,-2.4743,-2.4684,-2.4629,-2.4535,-2.4472,-2.446,-2.4424,-2.4448,-2.4448,-2.4437,-2.4323,-2.4326,-2.4478,-2.4478,-2.4478,-2.4478,-2.4478,-2.4478,-2.5365,-2.5341,-2.5284,-2.523,-2.517,-2.5123,-2.5088,-2.5037,-2.4981,-2.4919,-2.4874,-2.4813,-2.4734,-2.4666,-2.4613,-2.4587,-2.4569,-2.4604,-2.4568,-2.4463,-2.4445,-2.4427,-2.4429,-2.4601,-2.4601,-2.4685,-2.4686,-2.4686]},{"header":{"parameterUnit":"m.s-1","parameterCategory":1,"la1":30.2991,"la2":30.254,"lo1":-89.0895,"lo2":-89.0444,"dy":0.0017,"dx":0.0017,"nx":28,"ny":28,"refTime":"2023-10-20T21:00:00:Z","depth":0,"parameterNumber":3,"parameterNumberName":"V-component_of_WINDS"},"data":[0,0,0,0,0,0,0,0,0,0,0,0,0,0,0,0,0,0,0,0,0,0,0,0,0,0,0,0,0,0,0,0,0,0,0,0,0,0,0,0,0,0,0,0,0,0,0,0,0,0,0,0,0,0,0,0,0,0,1.4605,1.4604,0,1.4496,1.4495,1.4494,1.4499,1.4501,1.4503,1.4504,1.4385,1.4381,1.4376,0,0,0,0,0,0,0,0,0,0,0,0,0,1.4813,1.481,1.4606,1.4604,1.4603,1.4496,1.4495,1.4493,1.4499,1.4501,1.4503,1.4505,1.4387,1.4381,1.4376,0,0,0,0,0,0,0,0,0,0,0,0,0,1.4715,1.4808,1.4606,1.4593,1.4591,1.4497,1.4495,1.4493,1.4499,1.4501,1.4504,1.4506,1.4388,1.4382,1.4375,1.4284,0,0,1.4353,1.435,0,0,0,0,0,0,0,0,1.4721,1.4708,1.4596,1.4594,1.4591,1.4514,1.4525,1.4423,1.4498,1.4533,1.4504,1.4507,1.4426,1.4416,1.439,1.4278,1.4273,1.4353,1.4349,1.4346,1.4344,0,0,0,0,0,0,0,1.4728,1.4712,1.4562,1.4595,1.4591,1.4591,1.458,1.4505,1.4467,1.4531,1.4531,1.4518,1.4425,1.4396,1.4387,1.4272,1.4353,1.4347,1.4343,1.434,1.408,1.4078,0,0,0,0,0,0,1.4738,1.4718,1.4566,1.4559,1.4664,1.4585,1.4573,1.4536,1.4468,1.446,1.4516,1.4519,1.4407,1.4395,1.4383,1.4272,1.4346,1.4339,1.4335,1.4083,1.408,1.4077,0,0,0,0,0,0,1.4743,1.4725,1.457,1.4638,1.4619,1.4579,1.4538,1.4533,1.4505,1.4457,1.445,1.4495,1.4409,1.4393,1.4309,1.4268,1.4336,1.433,1.4086,1.4082,1.4078,1.405,0,0,0,0,0,0,1.4749,1.4726,1.4692,1.4638,1.4615,1.45,1.4536,1.4529,1.4494,1.4496,1.4435,1.4427,1.4409,1.432,1.4302,1.426,1.4324,1.409,1.4084,1.408,1.4054,1.4045,1.4038,0,0,0,0,0,1.4756,1.4687,1.4691,1.4672,1.4573,1.4497,1.4484,1.4466,1.449,1.4455,1.4425,1.4429,1.4276,1.4311,1.4291,1.4246,1.4092,1.4086,1.408,1.4058,1.4047,1.4038,0,0,0,0,0,0,1.4734,1.4679,1.4683,1.4595,1.4551,1.4498,1.4453,1.4455,1.4402,1.4406,1.4385,1.4371,1.4287,1.4258,1.4298,1.4155,1.4187,1.4177,1.4177,1.4166,1.4158,1.4166,1.4318,0,0,0,0,0,1.472,1.4666,1.462,1.4546,1.4524,1.4493,1.4459,1.445,1.4403,1.4384,1.4347,1.4299,1.424,1.4202,1.4145,1.4051,1.4037,1.401,1.4002,1.3995,1.3986,1.3934,1.3921,1.4057,1.4057,1.4057,0,0,1.4688,1.4652,1.4618,1.4541,1.4506,1.4448,1.4477,1.4414,1.4371,1.4373,1.4293,1.4265,1.421,1.4121,1.408,1.4094,1.3946,1.3987,1.3983,1.3977,1.3926,1.3914,1.3902,1.4053,1.4054,1.4054,0,0,1.4601,1.4569,1.4504,1.4469,1.4417,1.4397,1.4382,1.433,1.4312,1.4231,1.4232,1.4179,1.4078,1.4039,1.4006,1.3907,1.3909,1.3889,1.3845,1.3794,1.3784,1.3774,1.3738,1.3725,1.388,1.388,1.388,0,1.4568,1.4483,1.447,1.4408,1.4373,1.4376,1.431,1.4276,1.4207,1.4182,1.42,1.4075,1.4038,1.394,1.3916,1.3889,1.387,1.3895,1.3787,1.3777,1.3768,1.3733,1.372,1.3878,1.3878,1.3879,1.3879,0,1.4444,1.4386,1.434,1.4276,1.4237,1.4172,1.4148,1.4109,1.4104,1.4081,1.3999,1.3956,1.3891,1.3867,1.386,1.3768,1.3779,1.3792,1.3823,1.3753,1.372,1.3707,1.3875,1.3876,1.3876,1.3877,0,0,1.4338,1.4271,1.4254,1.4225,1.4169,1.4122,1.4058,1.3997,1.3964,1.3917,1.3861,1.3777,1.379,1.3753,1.3741,1.3697,1.3621,1.3716,1.3714,1.3699,1.3516,1.3506,1.3491,1.3623,1.362,1.3618,1.3521,0,1.4245,1.4134,1.4121,1.4021,1.3966,1.3969,1.3913,1.3872,1.385,1.3798,1.3773,1.3714,1.3735,1.3713,1.367,1.364,1.3584,1.3647,1.3569,1.3567,1.3582,1.3474,1.3462,1.3372,1.3508,1.3506,1.3504,0,1.412,1.4073,1.3969,1.3922,1.3898,1.3848,1.3792,1.3744,1.3696,1.3683,1.3643,1.3638,1.357,1.3606,1.3511,1.3554,1.3522,1.3503,1.3499,1.349,1.353,1.346,1.3343,1.3329,1.3484,1.3485,1.3487,0,1.4053,1.3963,1.3889,1.3865,1.3808,1.3773,1.3747,1.3703,1.3667,1.3617,1.3593,1.3535,1.3503,1.3457,1.3436,1.3464,1.3342,1.3377,1.3328,1.3329,1.3301,1.3302,1.3175,1.3282,1.3282,1.3283,1.3283,0,1.3949,1.3885,1.3858,1.3812,1.374,1.3726,1.3654,1.3629,1.359,1.3539,1.3537,1.3488,1.3464,1.3411,1.3394,1.3318,1.3303,1.3289,1.3285,1.3289,1.3291,1.3266,1.3271,1.3279,1.328,1.328,1.3281,0,1.3861,1.384,1.376,1.3714,1.3701,1.365,1.3609,1.3564,1.3544,1.3479,1.3462,1.3429,1.3367,1.3342,1.3264,1.3253,1.3165,1.3167,1.3182,1.3181,1.3133,1.3138,1.2985,1.2964,1.3086,1.3084,1.3084,0,1.3795,1.3746,1.3696,1.3663,1.3637,1.3583,1.3548,1.3532,1.3495,1.3438,1.34,1.3339,1.3288,1.3188,1.3156,1.3097,1.3096,1.3047,1.3087,1.3092,1.3094,1.3097,1.3092,1.3038,1.3037,1.3036,1.3035,0,1.3681,1.3674,1.3625,1.3572,1.3531,1.3487,1.3445,1.3418,1.3395,1.3353,1.3291,1.3252,1.3175,1.3114,1.3054,1.3025,1.3025,1.3024,1.3009,1.3011,1.3022,1.3015,1.3161,1.3026,1.3027,1.3028,1.3029,1.3029,1.3601,1.3559,1.3517,1.3462,1.343,1.3391,1.3347,1.3322,1.3271,1.3209,1.3202,1.3135,1.309,1.3009,1.2978,1.2925,1.2937,1.2916,1.2911,1.2906,1.2902,1.3032,1.2913,1.2914,1.2914,1.2914,1.2914,0,1.3487,1.3461,1.3411,1.3354,1.3311,1.3319,1.3273,1.3235,1.3178,1.3136,1.3088,1.3017,1.2958,1.2922,1.2862,1.2826,1.2825,1.281,1.2812,1.2805,1.2895,1.2913,1.2812,1.2812,1.2812,1.2812,1.2813,1.2813,1.3422,1.335,1.3338,1.325,1.3224,1.3161,1.3134,1.3098,1.3065,1.2987,1.2939,1.2917,1.2877,1.2815,1.2761,1.2751,1.2729,1.2714,1.2705,1.2789,1.2799,1.2809,1.2826,1.2709,1.2709,1.262,1.262,1.2619]}]]